Location: Sperry Observatory
(40.6664°N, 74.3236°W)
Time: 09:42:42
(UTC-05:00)

UOSAT-12 - Visible Passes

Search period start: 23 January 2017 00:00
Search period end: 02 February 2017 00:00
Orbit: 612 x 641 km, 64.6° (Epoch: 22 January)

Date Brightness Start Highest point End Pass type
(mag) Time Alt. Az. Time Alt. Az. Time Alt. Az.
23 Jan 10.5 06:02:09 10° SE 06:04:25 14° ESE 06:06:43 10° ENE visible
24 Jan 9.3 06:20:00 10° S 06:23:55 31° ESE 06:27:54 10° NE visible
25 Jan 7.5 06:39:08 10° SSW 06:43:36 70° ESE 06:48:08 10° NE visible
26 Jan 10.1 05:21:00 10° SSE 05:23:48 17° ESE 05:26:39 10° ENE visible
27 Jan 8.7 05:39:14 10° S 05:43:21 36° ESE 05:47:30 10° NE visible
28 Jan 7.1 05:58:34 10° SSW 06:03:03 83° ESE 06:07:37 10° NE visible
29 Jan 9.6 04:39:58 10° SSE 04:43:12 20° ESE 04:46:27 10° ENE visible
29 Jan 7.4 06:18:38 10° SW 06:22:57 45° NW 06:27:20 10° NNE visible
30 Jan 8.2 04:59:18 15° S 05:02:46 43° ESE 05:07:04 10° NE visible
31 Jan 6.9 05:20:27 32° SW 05:22:31 83° WNW 05:27:05 10° NNE visible
01 Feb 9.4 04:03:39 21° E 04:03:39 21° E 04:06:10 10° ENE visible
01 Feb 7.6 05:41:01 30° W 05:42:27 39° NW 05:46:45 10° NNE visible
